Other Surface Observations
Issued by NWS

Current Version | Previous Version | Text Only | Print | Product List | Glossary On
Versions: 1 2 3 4 5 6 7 8 9 10 11 12 13 14 15 16 17 18 19 20 21 22 23 24 25 26 27 28 29 30 31 32 33 34 35 36 37 38 39 40 41 42 43 44 45 46 47 48 49 50
000
SXUS52 KTAE 240118
OSOTAE
OSOTAE
North Florida/South Alabama/Southwest Georgia Weather Roundup
National Weather Service Tallahassee Florida
900 PM EDT SUN SEP 23 2018

Note: "fair" indicates few or no clouds below 12,000 feet with no
significant weather and/or obstructions to visibility.

!FLZ017-115-028-034-025-240200
...North Florida...

CITY           SKY/WX    TMP DP  RH WIND       PRES   REMARKS
TALLAHASSEE    FAIR      78  73  84 CALM      29.99R
APALACHICOLA   FAIR      78  76  93 CALM      29.97R
PERRY          FAIR      80  74  83 CALM      30.00R
CROSS CITY     FAIR      78  74  88 CALM      29.99R
JACKSONVILLE   FAIR      79  72  79 E7        30.02R
$$

!FLZ112-006-005-002-011-240200
...Florida Panhandle...

CITY           SKY/WX    TMP DP  RH WIND       PRES   REMARKS
MARIANNA       FAIR      78  76  93 CALM      29.99R
BONIFAY        FAIR      76  75  97 CALM      30.00R
PANAMA CITY NW FAIR      76  73  91 N3        29.97R
TYNDALL AFB    FAIR      77  75  93 NE3       29.98R
TYND DRONE APT FAIR     N/A N/A N/A NE3         N/A
DE FUNIAK SPR  NOT AVBL
EGLIN AFB      CLOUDY    80  74  81 E5        29.96R
DESTIN         FAIR      80  73  79 E6        29.96S
HURLBURT       PTCLDY    75  65  71 NE5       29.95S
CRESTVIEW      FAIR      74  72  93 CALM      29.99R
PENSACOLA      MOCLDY    82  73  74 S9        29.96R
$$

!ALZ063-066-240200
...South Alabama...

CITY           SKY/WX    TMP DP  RH WIND       PRES   REMARKS
DOTHAN         FAIR      74  71  91 CALM      30.03R
OZARK CAIRNS   FAIR      77  72  83 CALM      30.00R
FT RUCKER HELI FAIR      74  71  92 CALM      29.99R
RUCKER HELI 3  FAIR      76  71  84 CALM      29.99R
RUCKER HELI 2  FAIR      74  71  91 CALM      29.99R
FLORALA APT    FAIR      74  70  87 CALM      30.02R
ANDALUSIA      FAIR      77  72  84 CALM      30.00R
TROY           FAIR      76  72  87 CALM      30.00R
EUFALA         NOT AVBL
MOBILE         FAIR      80  73  79 SE5       29.96R
$$

!GAZ120>161-240200
...Southwest and South Central Georgia...

CITY           SKY/WX    TMP DP  RH WIND       PRES   REMARKS
THOMASVILLE    FAIR      77  72  83 CALM      30.01R
BAINBRIDGE       N/A     79  73  83 CALM      30.00R
MOODY AFB      FAIR      80  72  75 E7        30.00R
VALDOSTA       FAIR      80  72  76 E5        30.00R
MOULTRIE       FAIR      79  70  73 CALM      30.01R
BLAKELY        MOCLDY    73  72  94 CALM      30.01R
ALBANY         CLOUDY    80  70  71 CALM      30.01R
TIFTON         MOCLDY    80  69  70 E3        30.01R
FITZGERALD     MOCLDY    81  73  76 E3        30.04R
CORDELE        CLOUDY    79  71  76 CALM      30.03R
AMERICUS         N/A     81  68  65 CALM      30.03R
HOMERVILLE     FAIR      79  72  78 E6        30.03R
$$

!GMZ750-755-770-775-240200
...Coastal and Buoy Obs...

STATION/POSITION TIME  TEMP    WIND        PRES    VSBY  WAVE
                       AIR SEA DIR/SP/G                  HT/PER
                 (UTC) (F)     (DEG/KT/KT) (MB)    (MI)  (FT/S)
KEATON BEACH     0100   80      50/  1/  2 1015.7R
CEDAR KEY        0100   82     120/ 21/ 24 1016.1R
C TOWER          0100   83     150/  7/  7 1015.2R
APALACHICOLA BUO NOT AVBL
PANAMA CITY BUOY 0050   82 86   80/ 10/ 12   N/A           2/ 5
MOBILE BUOY      0100      86  120/  6/  8 1014.0
ORANGE BCH AL BU 0100   83     130/ 12/ 14 1014.3
$$




USA.gov is the U.S. government's official web portal to all federal, state and local government web resources and services.